Location: Newark
(49.9828°N, 3.1606°E)
Time: 20:32:48
(UTC+00:00)

Envisat - Pass Details

Date: 29 January 2020
Orbit: 764 x 766 km, 98.1° (Epoch: 22 February)

Event Time Altitude Azimuth Distance (km) Brightness Sun altitude
Rises 05:21:55 0° 25° (NNE) 3,244 6.5 -19.9°
Reaches altitude 10° 05:24:50 10° 42° (NE) 2,312 6.0 -19.4°
Maximum altitude 05:28:35 20° 90° (E) 1,702 5.7 -18.8°
Drops below altitude 10° 05:32:18 10° 137° (SE) 2,299 6.2 -18.2°
Sets 05:35:10 0° 154° (SSE) 3,219 6.7 -17.7°
